Home > Weather > Landshut > Past weeks

Flag for Germany Past Weather in Landshut, Bavaria, Germany — Yesterday and Last 2 Weeks

Now
66 °F

Sunny.


Feels Like: 66 °F
Forecast: 51 / 74 °F
Wind: 1 mph from West

Location: Munich / Franz Josef Strauss Airport

Current Time: Jun 27, 2016 at 10:22:02 PM

Latest Report: Jun 27, 2016 at 9:50 PM


Visibility: 10 mi

Pressure: 30.15 "Hg

Humidity: 49%

Dew Point: 46 °F

Location of LandshutLocation

Past Weather in Landshut — Graph

°F

Landshut Temperature Yesterday

Maximum temperature yesterday: 66 °F (at 2:20 PM)
Minimum temperature yesterday: 55 °F (at 4:50 AM)
Average temperature yesterday: 61 °F

High & Low Weather Summary for the Past Weeks

 TemperatureHumidityPressure
High88 °F (Jun 24, 4:50 PM)100% (Jun 12, 9:20 PM)30.30 "Hg (Jun 12, 9:20 PM)
Low46 °F (Jun 18, 5:20 AM)40% (Jun 24, 4:50 PM)29.56 "Hg (Jun 14, 3:50 PM)
Average63 °F78%29.98 "Hg
* Reported Jun 12 9:20 PM — Jun 27 9:20 PM, Landshut, Weather by CustomWeather, © 2016

Note: Actual official high and low records may vary slightly from our data, if they occured in-between our weather recording intervals... More about our weather records

Advertising

Landshut Weather History for the Previous 24 Hours

Scroll right to see more
 ConditionsComfort  
Time TempWeatherWind HumidityBarometerVisibility
9:20 PM
Mon, Jun 27
64 °FSunny.2 mph60%30.15 "Hg10 mi
8:50 PM66 °FSunny.3 mph52%30.15 "Hg10 mi
8:20 PM68 °FSunny.5 mph43%30.12 "Hg10 mi
7:50 PM68 °FPassing clouds.5 mph46%30.12 "HgN/A
7:20 PM68 °FSunny.8 mph46%30.12 "Hg10 mi
6:50 PM70 °FPassing clouds.8 mph40%30.12 "HgN/A
6:20 PM70 °FPassing clouds.8 mph40%30.12 "HgN/A
5:50 PM70 °FSunny.8 mph40%30.12 "Hg10 mi
5:20 PM70 °FPassing clouds.10 mph40%30.12 "HgN/A
4:50 PM70 °FPassing clouds.10 mph50%30.12 "HgN/A
4:20 PM70 °FPassing clouds.9 mph46%30.12 "HgN/A
3:50 PM70 °FPassing clouds.10 mph43%30.12 "HgN/A
3:20 PM70 °FPassing clouds.13 mph46%30.12 "HgN/A
2:50 PM68 °FBroken clouds.12 mph46%30.15 "HgN/A
2:20 PM70 °FScattered clouds.7 mph46%30.15 "HgN/A
1:50 PM68 °FScattered clouds.8 mph53%30.15 "HgN/A
1:20 PM68 °FScattered clouds.10 mph56%30.15 "HgN/A
12:50 PM66 °FScattered clouds.10 mph52%30.15 "HgN/A
12:20 PM66 °FScattered clouds.8 mph56%30.18 "HgN/A
11:50 AM64 °FScattered clouds.5 mph64%30.18 "HgN/A
11:20 AM64 °FBroken clouds.7 mph64%30.18 "HgN/A
10:50 AM63 °FPartly sunny.7 mph68%30.18 "HgN/A
10:20 AM64 °FScattered clouds.10 mph64%30.18 "HgN/A
9:50 AM63 °FScattered clouds.7 mph73%30.18 "HgN/A
9:20 AM61 °FScattered clouds.7 mph83%30.18 "HgN/A
8:50 AM61 °FBroken clouds.7 mph83%30.18 "HgN/A
8:20 AM59 °FScattered clouds.8 mph94%30.18 "HgN/A
7:50 AM57 °FPartly sunny.7 mph94%30.18 "HgN/A
7:20 AM55 °FScattered clouds.7 mph100%30.18 "HgN/A
6:50 AM55 °FPartly sunny.3 mph100%30.15 "HgN/A
6:20 AM55 °FBroken clouds.2 mph100%30.15 "HgN/A
5:50 AM55 °FPartly cloudy.5 mph100%30.15 "HgN/A
5:20 AM55 °FPartly cloudy.6 mph100%30.15 "HgN/A
4:50 AM55 °FLight rain. Mostly cloudy.7 mph100%30.15 "HgN/A
4:20 AM55 °FLight rain. Mostly cloudy.6 mph100%30.15 "HgN/A
3:50 AM55 °FLight rain. Mostly cloudy.5 mph100%30.15 "HgN/A
3:20 AM55 °FLight rain. Mostly cloudy.5 mph100%30.15 "HgN/A
2:50 AM55 °FLight rain. Mostly cloudy.7 mph100%30.15 "HgN/A
2:20 AM55 °FLight rain. Mostly cloudy.6 mph100%30.15 "HgN/A
1:50 AM55 °FLight rain. Mostly cloudy.8 mph100%30.12 "HgN/A
1:20 AM55 °FLight rain. Mostly cloudy.7 mph100%30.12 "HgN/A
12:50 AM55 °FLight rain. Mostly cloudy.7 mph100%30.15 "HgN/A
12:20 AM55 °FCool.6 mph94%30.15 "HgN/A
11:50 PM
Sun, Jun 26
57 °FLight rain. Passing clouds.8 mph88%30.15 "HgN/A
11:20 PM59 °FPassing clouds.9 mph82%30.15 "HgN/A
10:50 PM57 °FLight rain. Passing clouds.6 mph88%30.12 "HgN/A
10:20 PM59 °FLight rain. Partly cloudy.1 mph82%30.12 "HgN/A
Weather by CustomWeather, © 2016

See weather overviewHow to use our weather pages